SCP
0 0 0 0 0 0 0 0 0 0 0 0 0 0 0 0 0 0 0 0 0 0 0 0 0 0 0 0 0 0 0 0 0 0 0 0 0 0 0 0 0 0 0
0 0 0 0 0 0 0 0 0 0 0 0 0 0 0 0 0 0 0 0 0 0 0 0 0 0 0 0 0 0 0 0 0 0 0 0 0 0 0 0 0 0 0
0 0 0 0 0 0 0 0 0 0 0 0 0 0 0 0 0 0 0 0 0 0 0 0 0 0 0 0 0 0 0 0 0 0 0 0 0 0 0 0 0 0 0
0 0 0 0 0 0 0 0 0 0 0 0 0 0 0 0 0 0 0 0 0 0 0 0 0 0 0 0 0 0 0 0 0 0 0 0 0 0 0 0 0 0 0
0 0 0 0 0 0 0 0 0 0 0 0 0 0 0 0 0 0 0 0 0 0 0 0 0 0 0 0 0 0 0 0 0 0 0 0 0 0 0 0 0 0 0
0 0 0 0 0 0 0 0 0 0 0 0 0 0 0 0 0 0 0 0 0 0 0 0 0 0 0 0 0 0 0 0 0 0 0 0 0 0 0 0 0 0 0
0 0 0 0 0 0 0 0 0 0 0 0 0 0 0 0 0 0 0 0 0 0 0 0 0 0 0 0 0 0 0 0 0 0 0 0 0 0 0 0 0 0 0
0 0 0 0 0 0 0 0 0 0 0 0 0 0 0 0 0 0 0 0 0 0 0 0 0 0 0 0 0 0 0 0 0 0 0 0 0 0 0 0 0 0 0
0 0 0 0 0 0 0 0 0 0 0 0 0 0 0 0 0 0 0 0 0 0 0 0 0 0 0 0 0 0 0 0 0 0 0 0 0 0 0 0 0 0 0
0 0 0 0 0 0 0 0 0 0 0 0 0 0 0 0 0 0 0 0 0 0 0 0 0 0 0 0 0 0 0 0 0 0 0 0 0 0 0 0 0 0 0
0 0 0 0 0 0 0 0 0 0 0 0 0 0 0 0 0 0 0 0 0 0 0 0 0 0 0 0 0 0 0 0 0 0 0 0 0 0 0 0 0 0 0
0 0 0 0 0 0 0 0 0 0 0 0 0 0 0 0 0 0 0 0 0 0 0 0 0 0 0 0 0 0 0 0 0 0 0 0 0 0 0 0 0 0 0
0 0 0 0 0 0 0 0 0 0 0 0 0 0 0 0 0 0 0 0 0 0 0 0 0 0 0 0 0 0 0 0 0 0 0 0 0 0 0 0 0 0 0
0 0 0 0 0 0 0 0 0 0 0 0 0 0 0 0 0 0 0 0 0 0 0 0 0 0 0 0 0 0 0 0 0 0 0 0 0 0 0 0 0 0 0
0 0 0 0 0 0 0 0 0 0 0 0 0 0 0 0 0 0 0 0 0 0 0 0 0 0 0 0 0 0 0 0 0 0 0 0 0 0 0 0 0 0 0
0 0 0 0 0 0 0 0 0 0 0 0 0 0 0 0 0 0 0 0 0 0 0 0 0 0 0 0 0 0 0 0 0 0 0 0 0 0 0 0 0 0 0
0 0 0 0 0 0 0 0 0 0 0 0 0 0 0 0 0 0 0 0 0 0 0 0 0 0 0 0 0 0 0 0 0 0 0 0 0 0 0 0 0 0 0
0 0 0 0 0 0 0 0 0 0 0 0 0 0 0 0 0 0 0 0 0 0 0 0 0 0 0 0 0 0 0 0 0 0 0 0 0 0 0 0 0 0 0
0 0 0 0 0 0 0 0 0 0 0 0 0 0 0 0 0 0 0 0 0 0 0 0 0 0 0 0 0 0 0 0 0 0 0 0 0 0 0 0 0 0 0
0 0 0 0 0 0 0 0 0 0 0 0 0 0 0 0 0 0 0 0 0 0 0 0 0 0 0 0 0 0 0 0 0 0 0 0 0 0 0 0 0 0 0
0 0 0 0 0 0 0 0 0 0 0 0 0 0 0 0 0 0 0 0 0 0 0 0 0 0 0 0 0 0 0 0 0 0 0 0 0 0 0 0 0 0 0
-0 -0 -0 -0 -0 -0 -0 0 0 0 0 0 0 0 0 0 0 -0 -0 -0 -0 -0 0 0 0 0 0 0 0 0 0 0 0 0 0 0 0 0 0 0 0 0 0
-0 0 -0 -0 -0 -0 -0 -0 -0 -0 -0 -0 -0 -0 -0 -0 -0 -0 -0 -0 0 0 0 0 0 0 0 0 0 0 0 0 0 0 0 0 0 0 0 0 0 0 0
0 0 0 -0 -0 -0 -0 -0 -0 -0 -0 -0 -0 0 0 0 0 0 0 0 0 0 0 0 0 0 0 0 0 0 0 0 0 0 0 0 0 0 0 0 0 0 0
0 0 0 0 0 0 0 0 0 0 0 0 0 0 0 0 0 0 0 0 0 0 0 0 0 0 0 0 0 0 0 0 0 0 0 0 0 0 0 0 0 0 0
0 0 0 0 0 0 0 0 0 0 0 0 0 0 0 0 0 0 0 0 0 0 0 0 0 0 0 0 0 0 0 0 0 0 0 0 0 0 0 0 0 0 0
Wind_Speed_500mb
12 21 22 25 24 20 15 18 22 23 24 26 26 28 27 27 28 23 22 22 18 18 18 17 11 10 12 13 13 13 14 14 18 16 19 16 14 15 17 20 23 25 27
25 23 17 17 15 11 8 5 1 6 3 9 12 14 15 18 16 15 14 14 14 11 8 11 12 12 10 10 7 9 9 9 12 12 11 11 13 15 18 21 23 27 28
18 20 17 12 9 8 6 6 4 6 9 14 17 17 16 16 14 11 9 11 12 13 8 7 6 9 7 6 3 5 4 6 8 8 10 12 14 16 19 22 24 28 29
6 8 11 11 10 11 19 23 15 19 26 18 14 15 14 12 12 10 14 14 11 11 10 9 7 8 6 2 2 4 7 9 10 10 11 12 14 18 20 22 23 25 24
10 13 10 7 8 4 6 9 10 10 8 12 13 15 14 12 11 13 15 14 12 11 7 9 8 3 2 5 7 8 10 12 13 13 13 15 18 20 22 23 24 25 25
15 15 16 14 11 11 12 9 8 9 12 11 12 13 16 16 12 12 10 9 10 10 7 5 2 1 4 6 8 12 14 15 16 17 17 19 20 21 23 23 26 28 26
15 16 17 18 16 15 15 14 13 11 10 12 13 12 13 13 13 13 12 10 9 8 5 2 1 3 6 10 13 14 15 17 18 20 20 20 21 22 24 25 26 27 28
15 13 14 14 13 12 12 12 11 12 11 10 12 13 13 14 15 14 11 9 6 4 2 1 2 6 9 11 14 16 18 20 21 22 23 22 22 24 25 26 27 28 31
12 10 10 11 9 7 7 8 8 9 11 12 13 14 14 15 14 12 9 7 4 1 2 3 6 9 12 15 16 19 21 23 25 27 28 28 28 26 25 25 25 28 35
10 9 9 8 9 7 6 6 6 8 9 8 9 11 13 11 10 7 5 4 3 3 4 7 10 13 16 19 20 23 25 26 28 30 30 29 28 26 25 25 26 30 37
7 6 6 5 6 6 5 6 6 6 7 9 11 11 10 10 8 6 5 6 5 6 8 10 12 15 20 23 25 27 29 30 31 32 32 30 28 27 27 27 28 33 38
3 3 4 3 3 3 5 6 7 8 9 10 10 9 9 8 8 9 10 9 10 11 13 15 18 22 24 27 29 31 33 34 35 33 32 30 28 28 29 30 29 35 41
3 1 3 5 6 7 10 11 12 13 15 15 13 13 14 15 16 16 15 15 14 16 19 21 25 27 30 32 34 36 36 37 35 33 32 30 31 31 31 34 33 38 44
4 1 6 10 11 12 13 13 13 15 17 19 19 20 22 22 19 19 20 20 21 24 26 27 31 33 35 36 37 38 39 39 37 35 33 32 32 35 34 39 39 42 47
15 11 7 11 12 14 14 16 17 20 22 24 24 26 26 24 24 26 27 28 29 33 33 33 35 38 38 39 39 40 41 41 40 38 38 36 35 37 38 39 43 47 52
24 24 22 20 20 20 23 23 21 22 24 27 32 30 30 32 33 33 35 36 37 39 41 38 38 40 41 41 42 42 43 42 41 41 40 40 40 40 42 42 45 50 55
24 26 28 30 28 29 28 27 29 32 32 34 34 35 35 37 37 37 38 40 41 45 47 41 41 41 42 43 44 45 44 40 43 43 44 42 44 45 48 48 48 52 55
29 29 34 35 33 33 38 41 41 42 43 43 40 37 36 37 40 38 39 42 43 45 47 46 46 45 46 47 47 48 46 42 40 42 45 44 45 49 52 51 51 55 58
39 38 33 36 39 42 44 47 47 44 42 38 35 35 33 36 38 38 40 46 46 46 46 49 50 51 51 52 53 52 50 49 46 48 48 48 48 51 55 54 55 57 60
41 38 39 40 42 45 45 44 42 41 39 36 35 29 34 41 41 38 42 47 52 53 52 53 53 55 57 57 57 53 54 53 51 51 52 53 51 53 56 57 58 60 59
39 39 39 43 44 41 43 43 41 41 40 37 34 32 41 47 46 47 47 48 52 54 55 57 59 59 57 57 56 55 55 55 52 53 53 52 52 56 55 58 59 59 59
36 36 39 39 38 40 40 41 41 42 41 42 38 38 45 52 54 54 54 53 52 57 59 63 62 59 56 55 55 56 58 57 54 51 53 54 55 57 57 59 59 58 57
33 32 32 34 36 38 41 41 42 43 44 44 46 46 47 51 55 57 58 57 58 59 58 61 62 59 54 54 55 57 59 56 52 53 54 54 56 58 57 59 58 57 56
31 34 35 36 37 38 39 39 42 44 45 46 47 49 51 53 55 55 56 57 59 58 56 57 58 58 55 52 52 53 54 53 54 55 56 56 57 57 56 56 55 55 57
29 31 34 37 39 41 41 41 42 43 45 47 48 49 50 52 53 53 53 54 55 54 51 52 54 55 54 52 49 49 51 53 56 55 55 56 57 57 56 55 54 54 55
27 28 30 32 34 36 37 38 39 41 42 44 46 46 47 47 47 48 48 49 49 49 49 49 50 51 52 52 52 53 54 55 55 54 56 58 58 56 54 53 52 52 50
Wind_Direction_500mb
138 141 173 152 154 141 156 175 189 204 215 217 227 232 236 242 231 228 232 261 265 281 276 271 255 260 279 268 268 277 274 273 279 278 267 271 284 285 295 302 309 315 318
86 91 79 69 70 87 95 100 143 161 212 277 262 246 253 249 232 237 253 260 270 244 232 256 257 259 250 259 264 272 272 275 272 281 279 275 282 295 304 311 317 315 322
75 87 96 93 82 67 55 13 320 303 309 289 257 244 231 230 248 247 240 206 248 240 229 230 222 240 238 237 250 261 291 311 309 301 298 281 291 304 313 315 318 322 326
268 295 321 327 303 256 259 257 274 291 272 252 230 234 229 237 224 239 246 231 213 175 182 192 205 201 199 194 259 339 335 329 325 320 316 307 309 312 315 319 319 319 323
211 224 242 282 282 259 231 212 218 230 198 203 205 215 217 230 219 195 183 176 179 194 182 177 172 175 286 306 338 344 343 335 333 330 321 317 319 319 317 318 319 324 331
147 155 149 162 149 140 143 145 128 119 132 136 141 147 146 144 144 147 148 175 157 139 147 141 98 340 325 328 336 338 341 341 333 328 327 324 317 313 312 316 324 331 343
132 130 131 130 133 137 132 136 129 139 157 160 156 160 161 159 155 151 152 161 153 152 157 122 356 316 334 344 342 341 338 335 330 325 320 314 311 312 318 325 327 328 326
123 126 124 126 130 134 138 149 154 162 168 176 173 165 162 166 162 165 165 150 149 174 166 220 316 331 334 336 335 335 332 326 323 319 318 317 319 316 316 320 322 323 325
110 112 120 128 129 138 141 147 155 152 155 161 162 160 161 174 167 163 156 162 173 236 292 304 328 328 329 331 328 322 321 320 318 317 316 316 313 311 313 313 315 318 319
114 124 133 136 136 143 149 161 169 171 173 176 189 179 171 171 164 159 176 194 219 254 289 318 327 326 323 323 321 321 322 319 317 313 310 308 307 306 305 306 311 316 321
110 125 137 150 146 148 160 177 188 202 192 198 200 196 195 193 191 205 220 236 256 288 305 309 314 313 314 316 315 314 311 309 308 305 303 301 298 298 300 303 308 313 315
84 103 127 147 176 208 220 223 217 208 207 204 207 214 228 226 231 242 254 265 276 285 294 305 310 315 317 315 311 306 303 303 302 299 296 295 293 293 295 297 302 305 306
130 186 239 248 248 244 240 238 228 218 212 211 224 237 241 241 244 249 258 267 279 289 298 307 310 311 309 307 305 302 300 296 295 294 294 292 289 288 289 291 296 299 303
137 17 284 267 266 253 242 236 237 242 238 233 234 236 240 246 257 266 275 282 287 290 295 300 304 306 305 302 299 297 296 294 293 292 291 290 287 287 288 289 293 294 297
227 216 247 254 262 255 246 238 236 236 239 244 248 247 250 253 258 267 273 276 282 284 289 295 300 301 300 297 294 294 293 292 290 288 289 289 285 283 285 287 292 296 300
250 252 240 242 257 257 256 252 251 256 261 265 259 256 259 261 257 261 269 276 279 283 289 296 297 295 295 294 295 295 291 286 283 282 285 285 284 282 282 285 290 296 301
267 258 255 251 244 258 258 260 270 275 274 279 279 270 255 257 260 265 271 277 285 291 295 298 295 293 293 292 293 291 288 283 278 279 280 281 282 283 285 287 293 297 301
269 261 254 252 249 252 262 265 268 273 271 274 272 262 258 258 263 269 275 281 286 287 291 294 294 293 292 292 291 288 287 285 284 281 279 280 281 282 283 288 293 298 302
268 265 261 252 245 246 252 258 266 270 274 274 267 265 266 265 267 273 281 286 289 289 290 289 289 290 289 287 287 287 286 285 282 280 280 279 279 281 284 290 294 297 302
263 264 261 257 251 249 251 258 266 272 271 269 267 269 266 269 271 277 279 282 285 288 288 286 285 283 283 284 285 286 284 282 281 280 280 279 280 281 285 289 293 297 301
261 258 257 256 257 259 259 263 266 267 270 270 271 269 269 270 273 275 278 280 282 283 283 281 281 281 283 283 284 284 283 283 282 282 282 282 281 281 284 288 292 296 299
265 264 260 260 262 265 270 271 273 274 276 276 275 269 269 274 278 279 278 278 277 277 278 279 281 282 282 282 282 281 281 282 284 284 283 282 283 284 286 289 292 295 298
264 262 263 263 262 261 263 266 267 268 269 269 270 269 268 271 274 277 281 283 281 280 280 280 282 283 282 281 281 283 284 285 285 283 284 285 285 286 287 288 291 294 296
266 260 255 253 254 256 258 259 261 264 267 269 270 272 274 275 277 280 281 281 282 283 284 283 282 284 285 284 282 282 283 285 285 286 287 287 287 287 289 290 292 294 294
274 267 261 257 256 257 259 261 264 267 270 274 276 278 280 282 283 283 284 285 286 287 287 285 286 287 287 287 285 283 283 284 286 287 287 287 288 288 290 291 291 290 290
283 279 276 274 272 273 274 275 276 277 278 279 280 282 285 287 289 290 289 289 290 290 290 289 289 288 287 287 287 287 286 286 287 287 287 287 288 289 289 289 288 287 289
Wind_Speed_850mb
12 21 22 25 24 20 15 18 22 23 24 26 26 28 27 27 28 23 22 22 18 18 18 17 11 10 12 13 13 13 14 14 18 16 19 16 14 15 17 20 23 25 27
25 23 17 17 15 11 8 5 1 6 3 9 12 14 15 18 16 15 14 14 14 11 8 11 12 12 10 10 7 9 9 9 12 12 11 11 13 15 18 21 23 27 28
18 20 17 12 9 8 6 6 4 6 9 14 17 17 16 16 14 11 9 11 12 13 8 7 6 9 7 6 3 5 4 6 8 8 10 12 14 16 19 22 24 28 29
6 8 11 11 10 11 19 23 15 19 26 18 14 15 14 12 12 10 14 14 11 11 10 9 7 8 6 2 2 4 7 9 10 10 11 12 14 18 20 22 23 25 24
10 13 10 7 8 4 6 9 10 10 8 12 13 15 14 12 11 13 15 14 12 11 7 9 8 3 2 5 7 8 10 12 13 13 13 15 18 20 22 23 24 25 25
15 15 16 14 11 11 12 9 8 9 12 11 12 13 16 16 12 12 10 9 10 10 7 5 2 1 4 6 8 12 14 15 16 17 17 19 20 21 23 23 26 28 26
15 16 17 18 16 15 15 14 13 11 10 12 13 12 13 13 13 13 12 10 9 8 5 2 1 3 6 10 13 14 15 17 18 20 20 20 21 22 24 25 26 27 28
15 13 14 14 13 12 12 12 11 12 11 10 12 13 13 14 15 14 11 9 6 4 2 1 2 6 9 11 14 16 18 20 21 22 23 22 22 24 25 26 27 28 31
12 10 10 11 9 7 7 8 8 9 11 12 13 14 14 15 14 12 9 7 4 1 2 3 6 9 12 15 16 19 21 23 25 27 28 28 28 26 25 25 25 28 35
10 9 9 8 9 7 6 6 6 8 9 8 9 11 13 11 10 7 5 4 3 3 4 7 10 13 16 19 20 23 25 26 28 30 30 29 28 26 25 25 26 30 37
7 6 6 5 6 6 5 6 6 6 7 9 11 11 10 10 8 6 5 6 5 6 8 10 12 15 20 23 25 27 29 30 31 32 32 30 28 27 27 27 28 33 38
3 3 4 3 3 3 5 6 7 8 9 10 10 9 9 8 8 9 10 9 10 11 13 15 18 22 24 27 29 31 33 34 35 33 32 30 28 28 29 30 29 35 41
3 1 3 5 6 7 10 11 12 13 15 15 13 13 14 15 16 16 15 15 14 16 19 21 25 27 30 32 34 36 36 37 35 33 32 30 31 31 31 34 33 38 44
4 1 6 10 11 12 13 13 13 15 17 19 19 20 22 22 19 19 20 20 21 24 26 27 31 33 35 36 37 38 39 39 37 35 33 32 32 35 34 39 39 42 47
15 11 7 11 12 14 14 16 17 20 22 24 24 26 26 24 24 26 27 28 29 33 33 33 35 38 38 39 39 40 41 41 40 38 38 36 35 37 38 39 43 47 52
24 24 22 20 20 20 23 23 21 22 24 27 32 30 30 32 33 33 35 36 37 39 41 38 38 40 41 41 42 42 43 42 41 41 40 40 40 40 42 42 45 50 55
24 26 28 30 28 29 28 27 29 32 32 34 34 35 35 37 37 37 38 40 41 45 47 41 41 41 42 43 44 45 44 40 43 43 44 42 44 45 48 48 48 52 55
29 29 34 35 33 33 38 41 41 42 43 43 40 37 36 37 40 38 39 42 43 45 47 46 46 45 46 47 47 48 46 42 40 42 45 44 45 49 52 51 51 55 58
39 38 33 36 39 42 44 47 47 44 42 38 35 35 33 36 38 38 40 46 46 46 46 49 50 51 51 52 53 52 50 49 46 48 48 48 48 51 55 54 55 57 60
41 38 39 40 42 45 45 44 42 41 39 36 35 29 34 41 41 38 42 47 52 53 52 53 53 55 57 57 57 53 54 53 51 51 52 53 51 53 56 57 58 60 59
39 39 39 43 44 41 43 43 41 41 40 37 34 32 41 47 46 47 47 48 52 54 55 57 59 59 57 57 56 55 55 55 52 53 53 52 52 56 55 58 59 59 59
36 36 39 39 38 40 40 41 41 42 41 42 38 38 45 52 54 54 54 53 52 57 59 63 62 59 56 55 55 56 58 57 54 51 53 54 55 57 57 59 59 58 57
33 32 32 34 36 38 41 41 42 43 44 44 46 46 47 51 55 57 58 57 58 59 58 61 62 59 54 54 55 57 59 56 52 53 54 54 56 58 57 59 58 57 56
31 34 35 36 37 38 39 39 42 44 45 46 47 49 51 53 55 55 56 57 59 58 56 57 58 58 55 52 52 53 54 53 54 55 56 56 57 57 56 56 55 55 57
29 31 34 37 39 41 41 41 42 43 45 47 48 49 50 52 53 53 53 54 55 54 51 52 54 55 54 52 49 49 51 53 56 55 55 56 57 57 56 55 54 54 55
27 28 30 32 34 36 37 38 39 41 42 44 46 46 47 47 47 48 48 49 49 49 49 49 50 51 52 52 52 53 54 55 55 54 56 58 58 56 54 53 52 52 50
Wind_Direction_850mb
138 141 173 152 154 141 156 175 189 204 215 217 227 232 236 242 231 228 232 261 265 281 276 271 255 260 279 268 268 277 274 273 279 278 267 271 284 285 295 302 309 315 318
86 91 79 69 70 87 95 100 143 161 212 277 262 246 253 249 232 237 253 260 270 244 232 256 257 259 250 259 264 272 272 275 272 281 279 275 282 295 304 311 317 315 322
75 87 96 93 82 67 55 13 320 303 309 289 257 244 231 230 248 247 240 206 248 240 229 230 222 240 238 237 250 261 291 311 309 301 298 281 291 304 313 315 318 322 326
268 295 321 327 303 256 259 257 274 291 272 252 230 234 229 237 224 239 246 231 213 175 182 192 205 201 199 194 259 339 335 329 325 320 316 307 309 312 315 319 319 319 323
211 224 242 282 282 259 231 212 218 230 198 203 205 215 217 230 219 195 183 176 179 194 182 177 172 175 286 306 338 344 343 335 333 330 321 317 319 319 317 318 319 324 331
147 155 149 162 149 140 143 145 128 119 132 136 141 147 146 144 144 147 148 175 157 139 147 141 98 340 325 328 336 338 341 341 333 328 327 324 317 313 312 316 324 331 343
132 130 131 130 133 137 132 136 129 139 157 160 156 160 161 159 155 151 152 161 153 152 157 122 356 316 334 344 342 341 338 335 330 325 320 314 311 312 318 325 327 328 326
123 126 124 126 130 134 138 149 154 162 168 176 173 165 162 166 162 165 165 150 149 174 166 220 316 331 334 336 335 335 332 326 323 319 318 317 319 316 316 320 322 323 325
110 112 120 128 129 138 141 147 155 152 155 161 162 160 161 174 167 163 156 162 173 236 292 304 328 328 329 331 328 322 321 320 318 317 316 316 313 311 313 313 315 318 319
114 124 133 136 136 143 149 161 169 171 173 176 189 179 171 171 164 159 176 194 219 254 289 318 327 326 323 323 321 321 322 319 317 313 310 308 307 306 305 306 311 316 321
110 125 137 150 146 148 160 177 188 202 192 198 200 196 195 193 191 205 220 236 256 288 305 309 314 313 314 316 315 314 311 309 308 305 303 301 298 298 300 303 308 313 315
84 103 127 147 176 208 220 223 217 208 207 204 207 214 228 226 231 242 254 265 276 285 294 305 310 315 317 315 311 306 303 303 302 299 296 295 293 293 295 297 302 305 306
130 186 239 248 248 244 240 238 228 218 212 211 224 237 241 241 244 249 258 267 279 289 298 307 310 311 309 307 305 302 300 296 295 294 294 292 289 288 289 291 296 299 303
137 17 284 267 266 253 242 236 237 242 238 233 234 236 240 246 257 266 275 282 287 290 295 300 304 306 305 302 299 297 296 294 293 292 291 290 287 287 288 289 293 294 297
227 216 247 254 262 255 246 238 236 236 239 244 248 247 250 253 258 267 273 276 282 284 289 295 300 301 300 297 294 294 293 292 290 288 289 289 285 283 285 287 292 296 300
250 252 240 242 257 257 256 252 251 256 261 265 259 256 259 261 257 261 269 276 279 283 289 296 297 295 295 294 295 295 291 286 283 282 285 285 284 282 282 285 290 296 301
267 258 255 251 244 258 258 260 270 275 274 279 279 270 255 257 260 265 271 277 285 291 295 298 295 293 293 292 293 291 288 283 278 279 280 281 282 283 285 287 293 297 301
269 261 254 252 249 252 262 265 268 273 271 274 272 262 258 258 263 269 275 281 286 287 291 294 294 293 292 292 291 288 287 285 284 281 279 280 281 282 283 288 293 298 302
268 265 261 252 245 246 252 258 266 270 274 274 267 265 266 265 267 273 281 286 289 289 290 289 289 290 289 287 287 287 286 285 282 280 280 279 279 281 284 290 294 297 302
263 264 261 257 251 249 251 258 266 272 271 269 267 269 266 269 271 277 279 282 285 288 288 286 285 283 283 284 285 286 284 282 281 280 280 279 280 281 285 289 293 297 301
261 258 257 256 257 259 259 263 266 267 270 270 271 269 269 270 273 275 278 280 282 283 283 281 281 281 283 283 284 284 283 283 282 282 282 282 281 281 284 288 292 296 299
265 264 260 260 262 265 270 271 273 274 276 276 275 269 269 274 278 279 278 278 277 277 278 279 281 282 282 282 282 281 281 282 284 284 283 282 283 284 286 289 292 295 298
264 262 263 263 262 261 263 266 267 268 269 269 270 269 268 271 274 277 281 283 281 280 280 280 282 283 282 281 281 283 284 285 285 283 284 285 285 286 287 288 291 294 296
266 260 255 253 254 256 258 259 261 264 267 269 270 272 274 275 277 280 281 281 282 283 284 283 282 284 285 284 282 282 283 285 285 286 287 287 287 287 289 290 292 294 294
274 267 261 257 256 257 259 261 264 267 270 274 276 278 280 282 283 283 284 285 286 287 287 285 286 287 287 287 285 283 283 284 286 287 287 287 288 288 290 291 291 290 290
283 279 276 274 272 273 274 275 276 277 278 279 280 282 285 287 289 290 289 289 290 290 290 289 289 288 287 287 287 287 286 286 287 287 287 287 288 289 289 289 288 287 289